Temp
72 72 73 74 75 74 74 75 74 76 81 82 83 83 82 84 84 83 79 79 76 72 72 73 70 69 71 71 70 71 71 70
71 70 71 71 72 71 71 71 72 74 77 80 80 74 77 81 83 81 79 77 73 71 71 70 69 69 69 70 70 68 67 69
68 69 69 67 68 68 68 69 70 71 74 78 82 81 80 80 81 79 76 75 73 71 71 69 69 70 69 69 67 64 66 68
65 65 66 67 66 65 65 67 67 68 69 73 76 81 81 79 77 76 74 74 72 70 71 70 69 71 69 69 66 66 62 64
63 62 63 63 64 64 65 64 65 66 67 68 70 75 77 80 79 79 73 72 74 71 71 71 71 71 69 70 68 70 69 63
59 60 61 63 62 61 61 61 61 63 62 61 63 68 77 81 80 76 71 70 71 72 72 72 71 70 70 69 67 70 73 70
59 60 60 61 60 58 57 56 57 58 57 57 58 60 68 76 79 75 70 69 68 69 71 71 72 69 68 68 71 71 69 72
56 56 56 56 56 54 53 51 50 53 51 52 55 56 64 69 76 76 72 69 66 67 69 69 69 69 71 70 71 71 71 70
55 54 54 54 53 51 48 44 44 46 47 49 51 53 58 70 72 71 74 72 68 68 68 70 70 70 68 69 70 71 70 69
53 53 52 50 49 47 41 40 41 43 44 46 49 51 56 69 75 70 70 73 70 68 67 67 68 67 66 68 68 69 68 67
51 51 50 47 45 43 40 39 39 41 43 45 48 50 56 71 74 70 69 73 71 70 68 65 65 65 65 67 68 69 66 67
50 50 49 47 45 42 39 37 37 39 42 44 46 53 65 71 69 69 69 70 69 68 67 64 64 64 64 64 65 67 66 66
48 48 47 44 44 41 36 35 34 38 41 44 46 50 55 62 64 67 67 65 65 64 64 63 63 64 65 65 65 66 66 65
46 45 43 39 38 35 34 35 35 36 40 43 43 45 46 50 60 61 62 62 62 62 62 62 62 63 63 65 66 65 65 66
42 42 41 37 35 34 33 34 35 36 38 39 40 41 43 44 47 53 59 60 60 60 61 62 62 63 65 65 63 62 62 62
37 39 38 36 34 32 32 33 33 35 35 35 36 40 40 39 40 42 44 50 56 58 58 58 57 58 56 63 64 63 59 56
35 36 36 34 34 32 31 31 31 34 33 32 33 36 38 38 37 38 38 39 40 42 43 45 44 42 39 40 55 58 53 51
32 33 33 33 33 32 31 31 31 31 31 33 33 34 33 35 36 35 34 34 35 36 36 37 37 38 38 39 40 44 42 42
30 32 32 32 32 32 33 32 31 30 29 30 32 32 32 33 33 32 32 31 32 32 32 33 34 35 36 36 36 36 35 36
MSLP
1007.05 1007.48 1007.73 1007.71 1007.53 1007.38 1007.01 1006.90 1006.84 1006.70 1006.10 1005.89 1005.81 1005.89 1006.21 1006.20 1006.15 1006.40 1007.37 1007.76 1008.20 1009.05 1009.89 1010.29 1010.71 1011.17 1011.45 1011.71 1012.01 1012.55 1012.79 1013.21
1007.41 1007.91 1008.13 1008.14 1008.00 1007.89 1007.73 1007.36 1007.21 1006.79 1005.95 1005.05 1004.97 1005.40 1005.61 1005.24 1005.43 1005.95 1006.61 1007.27 1007.91 1008.26 1009.18 1009.89 1010.30 1010.53 1010.81 1011.39 1011.76 1012.24 1012.70 1013.16
1007.74 1008.06 1008.26 1008.50 1008.37 1008.25 1008.16 1007.83 1007.52 1007.25 1006.57 1005.56 1004.36 1004.18 1004.47 1004.79 1004.95 1005.44 1005.98 1006.68 1007.17 1007.63 1008.24 1008.90 1009.59 1009.78 1010.23 1010.84 1011.21 1011.85 1012.34 1012.72
1008.16 1008.39 1008.62 1008.72 1008.65 1008.66 1008.50 1008.19 1007.92 1007.52 1007.09 1006.15 1005.10 1003.81 1003.61 1003.75 1004.19 1004.63 1005.04 1005.47 1005.82 1006.38 1006.82 1007.77 1008.56 1008.96 1009.16 1009.90 1010.56 1010.94 1011.71 1012.34
1008.97 1009.00 1008.98 1009.04 1009.03 1009.03 1008.77 1008.47 1008.22 1007.74 1007.26 1006.29 1005.26 1003.72 1002.38 1002.50 1002.74 1003.10 1003.85 1004.47 1004.91 1005.61 1006.13 1006.80 1007.53 1008.28 1008.52 1008.90 1009.80 1010.06 1010.87 1011.39
1009.67 1009.71 1009.58 1009.34 1009.32 1009.19 1008.95 1008.71 1008.36 1007.92 1007.53 1007.04 1006.06 1004.35 1002.57 1001.81 1001.80 1002.21 1003.02 1003.62 1004.11 1004.59 1005.21 1005.81 1006.63 1007.27 1007.91 1008.26 1008.94 1009.33 1009.69 1010.30
1010.31 1010.30 1010.08 1009.72 1009.77 1009.66 1009.27 1008.87 1008.42 1008.01 1007.66 1007.02 1006.07 1004.99 1003.46 1001.66 1001.06 1001.39 1002.21 1002.80 1003.28 1003.79 1004.26 1004.74 1005.46 1006.32 1007.20 1007.75 1008.07 1008.60 1009.17 1009.65
1010.59 1010.60 1010.47 1010.28 1010.24 1010.16 1009.88 1009.50 1008.80 1008.12 1007.62 1006.82 1005.81 1004.78 1003.47 1001.91 1000.54 1000.38 1001.21 1001.63 1002.29 1002.85 1003.44 1003.87 1004.55 1005.36 1006.14 1006.90 1007.31 1007.67 1008.22 1009.07
1010.86 1010.96 1010.89 1010.84 1010.77 1010.81 1010.66 1010.12 1009.08 1008.21 1007.38 1006.29 1005.34 1004.36 1002.99 1001.07 1000.15 1000.16 1000.20 1000.48 1001.30 1002.04 1002.87 1003.18 1003.52 1004.45 1005.32 1006.20 1006.90 1007.22 1007.44 1008.44
1011.38 1011.40 1011.37 1011.34 1011.24 1011.12 1010.95 1010.18 1009.34 1008.23 1006.99 1005.65 1004.28 1002.99 1001.70 999.89 998.95 999.41 999.74 999.68 1000.52 1001.49 1002.25 1003.01 1003.52 1004.01 1004.63 1005.58 1006.24 1006.73 1006.82 1007.97
1011.54 1011.58 1011.77 1012.07 1012.01 1011.66 1011.35 1010.87 1009.65 1008.13 1006.67 1005.31 1003.45 1001.68 1000.05 998.38 998.18 998.52 998.97 999.25 999.88 1000.67 1001.55 1002.41 1003.16 1003.77 1004.28 1005.13 1006.00 1006.26 1006.82 1007.71
1012.06 1012.14 1012.26 1012.19 1012.09 1011.80 1011.52 1010.82 1009.49 1008.13 1006.83 1004.58 1002.66 1000.73 998.44 997.40 997.74 998.08 998.27 998.84 999.36 999.96 1000.67 1001.61 1002.47 1002.98 1003.63 1004.59 1005.50 1006.05 1006.65 1007.26
1012.87 1012.82 1012.77 1012.51 1012.08 1011.86 1011.58 1010.56 1009.04 1008.25 1006.31 1004.95 1003.19 1001.05 999.46 997.78 998.14 998.11 998.25 998.54 999.04 999.81 1000.19 1001.07 1001.92 1002.44 1002.93 1003.85 1004.75 1005.53 1006.31 1006.70
1013.53 1013.56 1013.43 1012.66 1012.57 1012.05 1011.64 1010.76 1009.90 1008.40 1006.81 1005.28 1003.96 1002.54 1001.37 999.82 998.86 998.57 998.53 998.95 999.27 999.59 1000.06 1000.77 1001.24 1001.90 1002.36 1003.20 1004.46 1005.27 1005.80 1006.22
1014.49 1014.46 1013.77 1013.24 1013.17 1013.17 1012.57 1011.47 1010.29 1009.05 1007.48 1006.19 1004.88 1003.57 1002.49 1001.18 1000.78 999.71 999.20 999.21 999.63 999.54 1000.20 1000.74 1001.10 1001.85 1002.31 1003.42 1004.45 1004.90 1005.52 1006.18
1015.70 1015.20 1014.45 1014.13 1014.15 1013.96 1013.28 1012.29 1011.17 1009.70 1008.23 1006.80 1005.93 1005.12 1004.01 1001.61 1002.59 1001.73 1000.81 1000.56 1000.40 1000.72 1000.98 1001.14 1001.79 1002.32 1002.81 1003.61 1004.18 1003.82 1005.41 1006.58
1016.74 1016.10 1015.38 1015.41 1015.05 1014.66 1014.05 1013.07 1011.99 1010.80 1009.48 1008.19 1006.75 1005.64 1005.21 1004.96 1004.02 1003.94 1003.33 1003.08 1003.27 1002.69 1002.78 1002.85 1003.15 1003.92 1004.56 1004.50 1003.94 1004.09 1005.91 1007.06
1017.52 1016.97 1016.82 1016.54 1016.05 1015.51 1014.66 1013.88 1013.00 1011.98 1010.97 1009.81 1008.39 1007.63 1006.55 1005.98 1005.76 1005.27 1005.27 1005.29 1005.28 1004.65 1005.21 1004.79 1005.12 1005.44 1005.22 1005.59 1005.49 1005.33 1006.97 1008.42
1018.46 1018.18 1017.86 1017.38 1016.91 1016.20 1015.40 1014.53 1013.71 1012.89 1012.13 1011.39 1010.45 1009.30 1008.51 1007.99 1007.53 1007.13 1007.43 1007.37 1007.31 1006.49 1006.79 1006.64 1006.12 1006.57 1006.67 1006.54 1006.18 1006.98 1008.82 1010.09
Wind_Speed
5 7 8 9 9 11 12 10 10 9 11 11 11 12 13 13 13 13 17 15 18 12 9 11 9 8 9 8 10 9 8 7
5 7 8 9 9 11 12 13 11 9 9 11 11 12 13 14 14 18 16 15 15 13 10 10 11 11 11 11 9 10 7 7
7 9 10 11 12 11 12 12 12 10 9 11 12 12 14 14 13 15 15 17 16 14 14 12 14 10 13 14 10 4 5 8
11 12 13 12 13 13 14 14 14 12 14 11 12 13 12 12 13 14 15 19 19 19 18 15 13 13 11 13 12 13 6 6
12 14 15 15 14 13 15 15 15 13 14 13 15 16 16 15 15 15 13 19 19 18 18 15 15 13 12 14 11 14 12 8
13 14 16 16 16 16 15 16 16 15 15 14 13 17 16 14 13 16 15 14 18 18 19 18 16 12 14 14 13 15 12 10
12 13 14 15 15 16 17 18 18 16 15 16 16 19 20 17 16 12 11 12 12 16 19 17 17 14 14 13 16 18 12 12
13 15 15 15 17 18 18 20 20 18 18 18 18 19 21 24 19 13 14 11 10 15 17 17 15 17 16 14 15 15 15 13
13 15 15 16 18 17 18 19 21 20 19 20 18 18 14 17 17 12 12 11 11 13 15 17 20 17 14 14 11 11 14 12
14 16 15 17 18 19 18 19 19 18 19 17 17 16 20 21 22 13 10 10 10 12 13 13 14 15 15 14 10 13 12 11
14 14 15 14 15 16 16 15 17 19 19 17 15 18 22 19 17 15 12 11 11 13 16 13 13 14 14 14 10 11 11 11
14 14 14 14 15 15 16 15 17 17 17 17 18 18 16 15 12 12 13 12 13 14 15 14 15 16 15 13 13 13 13 12
13 15 15 15 17 17 16 16 17 18 18 16 15 14 14 2 7 12 9 9 10 11 13 14 14 15 16 15 14 12 13 13
13 14 14 16 17 18 17 17 17 17 16 15 15 13 13 12 1 4 6 8 10 12 13 13 14 14 14 14 14 12 11 11
14 14 15 17 17 16 17 17 17 17 15 16 15 16 14 12 13 11 2 3 5 8 11 12 12 12 15 15 13 12 10 6
14 15 16 17 16 15 15 16 16 17 16 16 16 15 14 18 13 15 14 12 3 3 5 7 9 7 5 15 14 14 12 9
12 14 17 16 17 16 15 15 16 16 16 17 14 16 15 15 15 15 16 15 13 12 11 10 11 8 3 6 8 13 11 9
12 14 14 14 15 15 16 15 14 15 16 17 19 14 14 15 16 18 18 16 14 14 13 13 13 13 17 18 17 13 12 11
11 11 12 14 14 15 15 15 14 15 16 16 17 18 18 16 15 17 16 16 14 14 13 11 13 14 20 23 25 18 15 14
Wind_Direction
21 1 358 350 348 334 329 327 314 291 264 236 238 228 225 227 223 215 215 214 208 196 202 203 183 189 195 196 186 202 195 201
18 6 356 345 351 346 340 329 328 312 283 242 226 225 227 230 224 222 218 213 207 194 201 197 190 194 191 195 187 199 185 180
13 359 354 349 339 340 334 329 325 315 293 275 252 230 227 227 225 227 212 214 204 197 197 197 199 197 186 192 179 154 182 176
359 356 354 348 341 336 326 322 319 315 306 284 270 251 239 223 222 217 215 208 201 199 197 196 199 201 191 188 183 177 168 187
359 350 346 343 340 333 325 321 316 309 310 298 276 268 235 228 225 225 212 214 210 202 200 197 196 201 194 190 183 190 185 185
353 347 340 334 337 335 328 322 312 310 307 295 286 268 263 241 229 231 213 211 213 201 199 196 197 193 200 188 185 193 199 193
345 340 334 333 336 333 330 325 317 312 305 296 282 275 264 255 231 216 214 209 203 207 201 195 194 189 190 190 189 194 189 208
347 345 339 335 333 333 329 326 315 315 307 295 284 276 270 255 244 226 214 202 196 205 200 194 191 190 192 190 191 190 191 205
345 341 338 336 332 328 326 324 315 315 307 299 288 276 264 253 234 226 228 210 202 199 205 203 196 190 183 186 191 194 186 202
344 341 342 338 332 331 330 321 314 311 307 300 290 278 269 245 225 214 226 218 196 196 195 200 200 188 173 176 187 191 184 192
349 344 343 337 331 329 326 316 314 312 308 301 294 287 277 226 219 206 216 216 196 192 190 191 189 183 167 173 182 185 176 200
350 345 344 343 337 340 333 323 323 317 309 312 314 299 269 221 210 204 205 210 195 197 193 181 184 172 165 164 175 179 190 196
351 347 348 351 350 346 339 337 335 321 324 321 319 332 336 274 211 211 196 196 190 187 180 181 176 171 162 161 169 179 192 197
355 351 349 4 353 351 341 338 332 331 330 338 343 349 352 1 353 172 172 184 183 186 182 177 169 166 163 155 173 178 184 188
1 348 360 5 359 351 340 337 339 339 342 350 355 3 1 15 7 5 86 108 193 180 178 173 164 166 157 163 161 158 165 152
356 354 4 5 358 349 344 344 344 349 353 356 1 12 18 35 7 18 23 25 24 183 160 126 106 122 113 166 171 148 132 128
353 1 10 2 359 355 347 349 353 357 3 5 355 10 25 35 34 34 36 38 31 56 50 78 78 58 12 60 146 120 115 113
5 10 5 1 359 356 358 354 356 10 12 10 15 10 26 34 41 41 37 37 39 47 40 56 66 60 69 75 80 81 78 69
13 10 7 4 3 4 4 10 14 16 21 19 20 22 28 32 38 50 41 36 33 40 40 54 55 56 68 76 80 75 72 60